Regional Weather Roundup
Issued by NWS Sterling, VA

Current Version | Previous Version | Text Only | Print | Product List | Glossary On
Versions: 1 2 3 4 5 6 7 8 9 10 11 12 13 14 15 16 17 18 19 20 21 22 23 24 25 26 27
000
ASUS41 KLWX 200011
RWRLWX

REGIONAL WEATHER ROUNDUP
NATIONAL WEATHER SERVICE BALTIMORE MD/WASHINGTON DC
800 PM EDT SAT AUG 19 2017

Note: "FAIR" indicates few or no clouds below 12,000 feet
with no significant weather and/or obstructions to visibility.
 TC=TEMPERATURE CELSIUS

 * =Non NWS site. Station does not report precipitation (e.g. rain,
    snow, etc.), thunder, or fog.

DCZ001-MDZ009-015-VAZ040>042-051-053>054-200100-
WASHINGTON METRO

CITY           SKY/WX    TMP DP  RH WIND       PRES   REMARKS
WASHINGTON NAT PTCLDY    84  68  58 SW7       29.90R
DULLES         PTCLDY    80  69  69 S3        29.91R
ANDREWS AFB    CLEAR     81  68  65 SW7       29.90R
FT BELVOIR     CLEAR     81  70  70 CALM      29.90R
QUANTICO       CLEAR     84  72  67 SW3       29.91R
COLLEGE PARK*  CLEAR     84  64  51 CALM      29.90R
LEESBURG*      CLEAR     82  72  69 SW3       29.92S
MANASSAS*      CLEAR     80  72  76 S3        29.91
GAITHERSBURG*  CLEAR     82  67  60 SW3       29.93R

$$

MDZ006>007-011-014-200100-
BALTIMORE METRO

CITY           SKY/WX    TMP DP  RH WIND       PRES   REMARKS
BWI AIRPORT    PTCLDY    81  70  69 CALM      29.89R
MD SCIENCE CTR   N/A     87  66  49 MISG      29.88R
MARTIN STATE   PTCLDY    82  75  78 SE3       29.90R
ANNAPOLIS      PTCLDY    83  75  77 CALM      29.89R HX  90
FORT MEADE*    CLEAR     75  72  88 CALM      29.92S

$$

MDZ012-015-019>023-200100-
MARYLAND EASTERN SHORE

CITY           SKY/WX    TMP DP  RH WIND       PRES   REMARKS
OCEAN CITY     PTCLDY    80  75  84 SW7       29.91R
SALISBURY      PTCLDY    78  72  81 SW5       29.91R
BAY BRIDGE AP* CLEAR     82  72  69 S3        29.90R
CAMBRIDGE*     CLEAR     79  73  83 CALM      29.91R

$$

MDZ017>025-200100-
SOUTHERN MARYLAND

CITY           SKY/WX    TMP DP  RH WIND       PRES   REMARKS
PATUXENT RIVER CLEAR     78  72  81 SW3       29.90R
ST INIGOES     CLEAR     77  73  87 SE3       29.90R
LEONARDTOWN*   CLEAR     75  70  83 CALM      29.93R

$$

MDZ003>005-200100-
NORTH CENTRAL MARYLAND

CITY           SKY/WX    TMP DP  RH WIND       PRES   REMARKS
FREDERICK*     CLEAR     82  66  57 CALM      29.93R
HAGERSTOWN APT TSTM      69  64  84 N6        29.98R
WESTMINSTER*   CLEAR     82  68  61 CALM      29.94R

$$

MDZ501>502-200100-
WESTERN MARYLAND

CITY           SKY/WX    TMP DP  RH WIND       PRES   REMARKS
OAKLAND*       CLOUDY    59  59 100 CALM      30.03F
CUMBERLAND*    CLOUDY    70  61  73 E5        30.04R

$$

VAZ025>031-200100-
SHENANDOAH VALLEY

CITY           SKY/WX    TMP DP  RH WIND       PRES   REMARKS
WINCHESTER*    PTCLDY    73  64  73 CALM      29.93R
FRONT ROYAL*   PTCLDY    81  68  65 CALM      29.92R
LURAY*         PTCLDY    81  68  65 CALM      29.93S
NEW MARKET*    PTCLDY    78  66  67 CALM      29.93R
STAUNTON*      CLEAR     79  64  60 SW3       29.98R
WAYNESBORO*    PTCLDY    80  63  56 SW5       29.98R

$$

WVZ021-048>050-054>055-200100-
EASTERN WEST VIRGINIA PANHANDLE

CITY           SKY/WX    TMP DP  RH WIND       PRES   REMARKS
MARTINSBURG    PTCLDY    80  64  58 NW6       29.92R
PETERSBURG*    CLEAR     75  67  77 W5        29.97R

$$

VAZ036>039-050-200100-
CENTRAL FOOTHILLS

CITY           SKY/WX    TMP DP  RH WIND       PRES   REMARKS
CHARLOTTESVILL LGT RAIN  82  65  56 SW3       29.93R
CULPEPER*      CLEAR     79  68  69 CALM      29.92S
ORANGE*        CLEAR     77  68  73 CALM      29.92S
GORDONSVILLE*  CLEAR     76  70  79 CALM      29.92S
WARRENTON*     CLEAR     81  64  56 S3        29.91R

$$

VAZ055>057-200100-
NORTH AND CENTRAL PIEDMONT

CITY           SKY/WX    TMP DP  RH WIND       PRES   REMARKS
FREDERICKSBRG* CLEAR     82  73  75 S3        29.90R
STAFFORD*      CLEAR     78  72  81 CALM      29.95R

$$

NCZ024-NYZ072-PAZ021-071-VAZ022-071-200100-
OTHER REGIONAL OBSERVATIONS

CITY           SKY/WX    TMP DP  RH WIND       PRES   REMARKS
NEW YORK CITY  CLEAR     81  62  52 VRB3      29.87R
PHILADELPHIA   PTCLDY    84  66  54 W10       29.88R
PITTSBURGH     PTCLDY    68  66  93 S5        29.97R
ROANOKE        PTCLDY    84  63  49 W6        29.99R
RICHMOND       PTCLDY    80  73  79 S5        29.92R
RALEIGH        PTCLDY    84  70  62 E5        29.95R

$$

ANZ530>537-200100-
MARINE OBSERVATIONS

STATION/POSITION TIME  TEMP    WIND        PRES
                       AIR SEA DIR/SP/G
                 (UTC) (F)     (DEG/KT/KT) (MB)
THOMAS PT LIGHT  0000   83 82  210/ 10/ 11   N/A
BALT KEY BRIDGE  2348   85     230/  5/  5 1012.0R
COVE POINT       2348   83     240/  4/  6 1013.3R
LEWISETTA        2348   82 85  190/  6/  7 1012.6R
SOLOMONS ISLAND  2348   82 83  220/  3/  3   N/A
PINEY POINT      2342          180/  4/  5   N/A

$$





USA.gov is the U.S. government's official web portal to all federal, state and local government web resources and services.